Facebook

   
     
Pulvinar tempor cras amet ac turpis tristique tristique ... (read more) close

İNSECTA has 100516 registered users

Userlist

# Status Avatar Username Posts Karma Join date Last login Hits
4411 OFFLINE Jeffreywhera's Avatar Jeffreywhera 0 0 20 Ağu 2017 18:07 21 Ağu 2017 04:53 51
4412 OFFLINE prigeBic's Avatar prigeBic 0 0 20 Ağu 2017 18:12 24 Ağu 2017 00:06 56
4413 OFFLINE ocoba's Avatar ocoba 0 0 20 Ağu 2017 18:24 20 Ağu 2017 19:24 115
4414 OFFLINE Everrerty's Avatar Everrerty 0 0 20 Ağu 2017 19:06 20 Ağu 2017 20:32 54
4415 OFFLINE delldreard's Avatar delldreard 0 0 20 Ağu 2017 20:10 20 Ağu 2017 21:28 58
4416 OFFLINE ukitiset's Avatar ukitiset 0 0 20 Ağu 2017 20:37 20 Ağu 2017 21:37 60
4417 OFFLINE Fusuncet's Avatar Fusuncet 0 0 20 Ağu 2017 21:07 20 Ağu 2017 22:16 58
4418 OFFLINE Allatrums's Avatar Allatrums 0 0 20 Ağu 2017 22:37 21 Ağu 2017 03:38 57
4419 OFFLINE NbatotexcEt's Avatar NbatotexcEt 0 0 20 Ağu 2017 23:55 21 Ağu 2017 01:13 59
4420 OFFLINE Icetottic's Avatar Icetottic 0 0 21 Ağu 2017 00:06 21 Ağu 2017 01:27 53
4421 OFFLINE Nakyneeve's Avatar Nakyneeve 0 0 21 Ağu 2017 01:13 24 Ağu 2017 02:03 58
4422 OFFLINE BrentonBlit's Avatar BrentonBlit 0 0 21 Ağu 2017 01:49 21 Ağu 2017 12:09 55
4423 OFFLINE Groktab's Avatar Groktab 0 0 21 Ağu 2017 01:51 21 Ağu 2017 08:37 54
4424 OFFLINE Yorikmi's Avatar Yorikmi 0 0 21 Ağu 2017 01:57 21 Ağu 2017 10:03 62
4425 OFFLINE ChrisKeX's Avatar ChrisKeX 0 0 21 Ağu 2017 02:20 21 Ağu 2017 09:35 53
4426 OFFLINE iziwo's Avatar iziwo 0 0 21 Ağu 2017 03:18 21 Ağu 2017 04:18 68
4427 OFFLINE FraserVowl's Avatar FraserVowl 0 0 21 Ağu 2017 03:21 21 Ağu 2017 09:55 49
4428 OFFLINE Kamakfut's Avatar Kamakfut 0 0 21 Ağu 2017 03:22 21 Ağu 2017 10:59 60
4429 OFFLINE Yussufen's Avatar Yussufen 0 0 21 Ağu 2017 03:57 21 Ağu 2017 12:15 50
4430 OFFLINE irydilase's Avatar irydilase 0 0 21 Ağu 2017 04:08 21 Ağu 2017 05:08 62
4431 OFFLINE Tragaktem's Avatar Tragaktem 0 0 21 Ağu 2017 04:32 21 Ağu 2017 11:11 58
4432 OFFLINE Taroksix's Avatar Taroksix 0 0 21 Ağu 2017 04:41 21 Ağu 2017 09:45 59
4433 OFFLINE MichaelQuabe's Avatar MichaelQuabe 0 0 21 Ağu 2017 04:44 23 Ağu 2017 19:14 55
4434 OFFLINE Willcig's Avatar Willcig 0 0 21 Ağu 2017 05:09 21 Ağu 2017 09:05 54
4435 OFFLINE KarmokOl's Avatar KarmokOl 0 0 21 Ağu 2017 05:39 21 Ağu 2017 10:37 54
4436 OFFLINE RendellBoup's Avatar RendellBoup 0 0 21 Ağu 2017 05:41 21 Ağu 2017 09:52 63
4437 OFFLINE Muratcefe's Avatar Muratcefe 0 0 21 Ağu 2017 05:58 21 Ağu 2017 11:10 66
4438 OFFLINE SifalpGila's Avatar SifalpGila 0 0 21 Ağu 2017 06:06 24 Ağu 2017 03:56 59
4439 OFFLINE weeladewplus's Avatar weeladewplus 0 0 21 Ağu 2017 07:02 24 Ağu 2017 06:57 70
4440 OFFLINE guercureauri's Avatar guercureauri 0 0 21 Ağu 2017 09:56 24 Ağu 2017 08:22 66

Who Is Online

Total users online: 0 Members and 48 Guests Online
Legend:  Site Administrator Global Moderator Moderator Banned User Guest

Kunena Statistics

  • Toplum Üye: 100.5k
  • Son Üye elekhivr
  • Toplam Mesaj: 21
  • Toplam Konu: 14
  • Toplam Bölüm: 3
  • Toplam Kategori: 10
  • Bugün Açılan: 0
  • Dün Açılan: 0
  • Bugün Cevaplar: 0
  • Dün Cevaplar: 0

Custom HTML

Time to create page: 5.485 seconds

Copyright © 2013 İnsecta Haşere Kontrol Hizmetleri